Time,TemperatureF,DewpointF,PressureIn,WindDirection,WindDirectionDegrees,WindSpeedMPH,WindSpeedGustMPH,Humidity,HourlyPrecipIn,Conditions,Clouds,dailyrainin,SolarRadiationWatts/m^2,SoftwareType,DateUTC
2013-04-30 00:04:00,75.6,45.2,30.01,WSW,257,5.8,5.8,34,0.00,,,0.00,0.0,WeatherDisplay:10.37,2013-04-29 22:04:00,
2013-04-30 00:09:00,75.7,45.3,30.01,East,99,8.0,8.0,34,0.00,,,0.00,0.0,WeatherDisplay:10.37,2013-04-29 22:09:00,
2013-04-30 00:14:00,75.9,45.5,30.01,NNE,32,5.8,5.8,34,0.00,,,0.00,0.0,WeatherDisplay:10.37,2013-04-29 22:14:00,
2013-04-30 00:19:00,75.8,45.4,30.01,NE,41,3.5,3.5,34,0.00,,,0.00,0.0,WeatherDisplay:10.37,2013-04-29 22:19:00,
2013-04-30 00:24:00,75.7,45.3,30.01,NW,306,3.5,3.5,34,0.00,,,0.00,0.0,WeatherDisplay:10.37,2013-04-29 22:24:00,
2013-04-30 00:29:00,75.6,46.0,30.01,ESE,114,2.3,2.3,35,0.00,,,0.00,0.0,WeatherDisplay:10.37,2013-04-29 22:29:00,
2013-04-30 00:34:00,75.5,45.9,30.01,West,276,4.6,4.6,35,0.00,,,0.00,0.0,WeatherDisplay:10.37,2013-04-29 22:34:00,
2013-04-30 00:39:00,75.3,45.7,30.01,SW,225,3.5,3.5,35,0.00,,,0.00,0.0,WeatherDisplay:10.37,2013-04-29 22:39:00,
2013-04-30 00:45:00,75.2,45.7,30.01,West,266,4.6,4.6,35,0.00,,,0.00,0.0,WeatherDisplay:10.37,2013-04-29 22:45:00,
2013-04-30 00:50:00,75.3,45.7,30.01,South,190,3.5,3.5,35,0.00,,,0.00,0.0,WeatherDisplay:10.37,2013-04-29 22:50:00,
2013-04-30 00:55:00,75.4,45.1,30.01,NE,42,11.5,11.5,34,0.00,,,0.00,0.0,WeatherDisplay:10.37,2013-04-29 22:55:00,
2013-04-30 01:00:00,75.7,45.3,30.01,SSW,192,11.5,11.5,34,0.00,,,0.00,0.0,WeatherDisplay:10.37,2013-04-29 23:00:00,
2013-04-30 01:05:00,75.4,45.1,30.01,North,9,2.3,2.3,34,0.00,,,0.00,0.0,WeatherDisplay:10.37,2013-04-29 23:05:00,
2013-04-30 01:10:00,75.2,45.7,30.01,South,175,3.5,3.5,35,0.00,,,0.00,0.0,WeatherDisplay:10.37,2013-04-29 23:10:00,
2013-04-30 01:15:00,75.0,45.5,30.01,ENE,72,3.5,3.5,35,0.00,,,0.00,0.0,WeatherDisplay:10.37,2013-04-29 23:15:00,
2013-04-30 01:20:00,75.1,45.6,30.01,South,180,10.4,10.4,35,0.00,,,0.00,0.0,WeatherDisplay:10.37,2013-04-29 23:20:00,
2013-04-30 01:25:00,75.6,45.2,30.01,ESE,119,4.6,4.6,34,0.00,,,0.00,0.0,WeatherDisplay:10.37,2013-04-29 23:25:00,
2013-04-30 01:30:00,75.4,45.8,30.01,NE,43,4.0,4.0,35,0.00,,,0.00,0.0,WeatherDisplay:10.37,2013-04-29 23:30:00,
2013-04-30 01:35:00,75.2,45.7,30.01,South,176,3.5,3.5,35,0.00,,,0.00,0.0,WeatherDisplay:10.37,2013-04-29 23:35:00,
2013-04-30 01:40:00,75.0,45.5,30.00,NE,49,4.0,4.0,35,0.00,,,0.00,0.0,WeatherDisplay:10.37,2013-04-29 23:40:00,
2013-04-30 01:45:00,74.9,45.4,30.00,ESE,108,6.0,6.0,35,0.00,,,0.00,0.0,WeatherDisplay:10.37,2013-04-29 23:45:00,
2013-04-30 01:50:00,74.8,46.1,30.00,SSW,199,2.3,2.3,36,0.00,,,0.00,0.0,WeatherDisplay:10.37,2013-04-29 23:50:00,
2013-04-30 01:55:00,74.4,46.4,30.00,SE,141,3.5,3.5,37,0.00,,,0.00,0.0,WeatherDisplay:10.37,2013-04-29 23:55:00,
2013-04-30 02:00:00,73.6,51.5,30.00,South,174,3.5,3.5,46,0.00,,,0.00,0.0,WeatherDisplay:10.37,2013-04-30 00:00:00,
2013-04-30 02:05:00,72.8,47.7,30.00,ENE,67,2.3,2.3,41,0.00,,,0.00,0.0,WeatherDisplay:10.37,2013-04-30 00:05:00,
2013-04-30 02:10:00,72.3,50.9,30.00,ENE,64,3.0,3.0,47,0.00,,,0.00,0.0,WeatherDisplay:10.37,2013-04-30 00:10:00,
2013-04-30 02:15:00,72.3,47.9,30.00,West,271,1.2,1.2,42,0.00,,,0.00,0.0,WeatherDisplay:10.37,2013-04-30 00:15:00,
2013-04-30 02:20:00,72.4,48.6,30.00,SE,126,2.3,2.3,43,0.00,,,0.00,0.0,WeatherDisplay:10.37,2013-04-30 00:20:00,
2013-04-30 02:25:00,72.7,48.3,30.00,ENE,74,2.3,2.3,42,0.00,,,0.00,0.0,WeatherDisplay:10.37,2013-04-30 00:25:00,
2013-04-30 02:30:00,72.7,47.6,30.00,WNW,296,1.2,0.0,41,0.00,,,0.00,0.0,WeatherDisplay:10.37,2013-04-30 00:30:00,
2013-04-30 02:35:00,72.6,49.4,30.00,WNW,296,0.0,0.0,44,0.00,,,0.00,0.0,WeatherDisplay:10.37,2013-04-30 00:35:00,
2013-04-30 02:40:00,72.1,50.2,30.00,WSW,254,2.3,2.3,46,0.00,,,0.00,0.0,WeatherDisplay:10.37,2013-04-30 00:40:00,
2013-04-30 02:45:00,71.6,50.3,30.00,West,273,3.5,3.5,47,0.00,,,0.00,0.0,WeatherDisplay:10.37,2013-04-30 00:45:00,
2013-04-30 02:50:00,71.0,50.9,30.00,NNW,333,5.0,5.0,49,0.00,,,0.00,0.0,WeatherDisplay:10.37,2013-04-30 00:50:00,
2013-04-30 02:55:00,70.4,49.2,30.00,North,360,4.6,4.6,47,0.00,,,0.00,0.0,WeatherDisplay:10.37,2013-04-30 00:55:00,
2013-04-30 03:00:00,71.0,46.7,30.00,NNW,332,3.5,3.5,42,0.00,,,0.00,0.0,WeatherDisplay:10.37,2013-04-30 01:00:00,
2013-04-30 03:05:00,72.2,45.9,30.00,NNE,21,2.3,2.3,39,0.00,,,0.00,0.0,WeatherDisplay:10.37,2013-04-30 01:05:00,
2013-04-30 03:10:00,72.6,45.5,30.00,ENE,63,3.5,3.5,38,0.00,,,0.00,0.0,WeatherDisplay:10.37,2013-04-30 01:10:00,
2013-04-30 03:15:00,72.0,48.3,30.01,SW,229,6.9,6.9,43,0.00,,,0.00,0.0,WeatherDisplay:10.37,2013-04-30 01:15:00,
2013-04-30 03:20:00,71.5,47.2,30.01,SW,223,2.3,2.3,42,0.00,,,0.00,0.0,WeatherDisplay:10.37,2013-04-30 01:20:00,
2013-04-30 03:25:00,71.5,48.4,30.01,SW,223,0.0,0.0,44,0.00,,,0.00,0.0,WeatherDisplay:10.37,2013-04-30 01:25:00,
2013-04-30 03:30:00,71.4,47.7,30.01,NNW,346,3.5,3.5,43,0.00,,,0.00,0.0,WeatherDisplay:10.37,2013-04-30 01:30:00,
2013-04-30 03:35:00,71.4,47.7,30.01,NE,55,1.2,1.2,43,0.00,,,0.00,0.0,WeatherDisplay:10.37,2013-04-30 01:35:00,
2013-04-30 03:40:00,71.7,46.1,30.01,NNE,13,3.5,3.5,40,0.00,,,0.00,0.0,WeatherDisplay:10.37,2013-04-30 01:40:00,
2013-04-30 03:45:00,71.7,48.0,30.01,WNW,297,0.0,0.0,43,0.00,,,0.00,0.0,WeatherDisplay:10.37,2013-04-30 01:45:00,
2013-04-30 03:50:00,71.5,45.9,30.01,NNE,18,4.6,4.6,40,0.00,,,0.00,0.0,WeatherDisplay:10.37,2013-04-30 01:50:00,
2013-04-30 03:55:00,71.8,47.5,30.01,SW,225,4.0,4.0,42,0.00,,,0.00,0.0,WeatherDisplay:10.37,2013-04-30 01:55:00,
2013-04-30 04:00:00,71.3,47.6,30.01,West,266,4.0,4.0,43,0.00,,,0.00,0.0,WeatherDisplay:10.37,2013-04-30 02:00:00,
2013-04-30 04:05:00,70.7,51.1,30.02,West,261,5.8,5.8,50,0.00,,,0.00,0.0,WeatherDisplay:10.37,2013-04-30 02:05:00,
2013-04-30 04:10:00,69.6,51.7,30.03,SW,229,4.6,4.6,53,0.00,,,0.00,0.0,WeatherDisplay:10.37,2013-04-30 02:10:00,
2013-04-30 04:15:00,68.9,53.0,30.03,West,271,5.0,5.0,57,0.00,,,0.00,0.0,WeatherDisplay:10.37,2013-04-30 02:15:00,
2013-04-30 04:20:00,68.3,52.5,30.03,WNW,293,2.0,2.0,57,0.00,,,0.00,0.0,WeatherDisplay:10.37,2013-04-30 02:20:00,
2013-04-30 04:25:00,68.3,48.4,30.03,NW,324,9.2,9.2,49,0.00,,,0.00,0.0,WeatherDisplay:10.37,2013-04-30 02:25:00,
2013-04-30 04:30:00,68.9,47.8,30.03,NNW,339,3.5,3.5,47,0.00,,,0.00,0.0,WeatherDisplay:10.37,2013-04-30 02:30:00,
2013-04-30 04:35:00,69.1,51.2,30.03,SSW,192,8.1,8.1,53,0.00,,,0.00,0.0,WeatherDisplay:10.37,2013-04-30 02:35:00,
2013-04-30 04:40:00,69.1,51.2,30.03,SSW,202,6.0,6.0,53,0.00,,,0.00,0.0,WeatherDisplay:10.37,2013-04-30 02:40:00,
2013-04-30 04:45:00,68.8,50.5,30.04,SW,215,10.4,10.4,52,0.00,,,0.00,0.0,WeatherDisplay:10.37,2013-04-30 02:45:00,
2013-04-30 04:50:00,68.2,55.1,30.05,South,190,9.2,9.2,63,0.00,,,0.00,0.0,WeatherDisplay:10.37,2013-04-30 02:50:00,
2013-04-30 04:55:00,66.9,54.3,30.05,SW,220,8.1,8.1,64,0.00,,,0.00,0.0,WeatherDisplay:10.37,2013-04-30 02:55:00,
2013-04-30 05:00:00,66.8,55.9,30.05,WSW,250,8.1,8.1,68,0.00,,,0.00,0.0,WeatherDisplay:10.37,2013-04-30 03:00:00,
2013-04-30 05:05:00,66.9,58.0,30.06,WSW,238,10.4,10.4,73,0.00,CLR,,0.00,0.0,WeatherDisplay:10.37,2013-04-30 03:05:00,
2013-04-30 05:10:00,66.6,58.8,30.06,SW,234,11.5,11.5,76,0.00,CLR,,0.00,0.0,WeatherDisplay:10.37,2013-04-30 03:10:00,
2013-04-30 05:15:00,66.5,59.1,30.07,SSW,213,17.3,17.3,77,0.00,CLR,,0.00,0.0,WeatherDisplay:10.37,2013-04-30 03:15:00,
2013-04-30 05:20:00,66.3,58.9,30.07,SW,233,15.0,15.0,77,0.00,CLR,,0.00,0.0,WeatherDisplay:10.37,2013-04-30 03:20:00,
2013-04-30 05:25:00,66.3,58.9,30.07,WSW,243,9.2,9.2,77,0.00,CLR,,0.00,0.0,WeatherDisplay:10.37,2013-04-30 03:25:00,
2013-04-30 05:30:00,66.4,59.0,30.07,WSW,255,8.1,8.1,77,0.00,CLR,,0.00,0.0,WeatherDisplay:10.37,2013-04-30 03:30:00,
2013-04-30 05:35:00,66.5,58.7,30.07,SW,236,8.1,8.1,76,0.00,CLR,,0.00,0.0,WeatherDisplay:10.37,2013-04-30 03:35:00,
2013-04-30 05:40:00,66.5,59.1,30.07,WSW,249,6.9,6.9,77,0.00,CLR,,0.00,0.0,WeatherDisplay:10.37,2013-04-30 03:40:00,
2013-04-30 05:45:00,66.4,59.0,30.07,WNW,294,2.3,2.3,77,0.00,CLR,,0.00,0.0,WeatherDisplay:10.37,2013-04-30 03:45:00,
2013-04-30 05:50:00,66.3,58.9,30.07,NNW,333,3.5,3.5,77,0.00,CLR,,0.00,0.0,WeatherDisplay:10.37,2013-04-30 03:50:00,
2013-04-30 05:55:00,66.3,58.9,30.07,ENE,63,17.0,17.0,77,0.00,CLR,,0.00,0.0,WeatherDisplay:10.37,2013-04-30 03:55:00,
2013-04-30 06:00:00,66.5,59.1,30.07,WSW,238,2.3,2.3,77,0.00,CLR,,0.00,0.0,WeatherDisplay:10.37,2013-04-30 04:00:00,
2013-04-30 06:01:00,66.5,59.1,30.07,WSW,238,2.3,2.3,77,0.00,BKN,,0.00,0.0,WeatherDisplay:10.37,2013-04-30 04:01:00,
2013-04-30 06:06:00,66.5,58.7,30.07,WSW,257,1.2,1.2,76,0.00,BKN,,0.00,0.0,WeatherDisplay:10.37,2013-04-30 04:06:00,
2013-04-30 06:11:00,66.4,58.6,30.07,NE,37,3.5,3.5,76,0.00,BKN,,0.00,0.0,WeatherDisplay:10.37,2013-04-30 04:11:00,
2013-04-30 06:16:00,66.3,58.9,30.07,ESE,105,2.3,2.3,77,0.00,BKN,,0.00,5.0,WeatherDisplay:10.37,2013-04-30 04:16:00,
2013-04-30 06:21:00,66.3,58.9,30.08,North,9,2.3,2.3,77,0.00,BKN,,0.00,7.0,WeatherDisplay:10.37,2013-04-30 04:21:00,
2013-04-30 06:26:00,66.0,58.2,30.07,WNW,288,8.1,8.1,76,0.00,BKN,,0.00,9.0,WeatherDisplay:10.37,2013-04-30 04:26:00,
2013-04-30 06:31:00,65.6,56.7,30.08,West,266,5.8,5.8,73,0.00,BKN,,0.00,11.0,WeatherDisplay:10.37,2013-04-30 04:31:00,
2013-04-30 06:36:00,65.7,56.8,30.07,ESE,117,4.6,4.6,73,0.00,BKN,,0.00,11.0,WeatherDisplay:10.37,2013-04-30 04:36:00,
2013-04-30 06:41:00,65.6,56.7,30.07,NNE,22,3.5,3.5,73,0.00,BKN,,0.00,14.0,WeatherDisplay:10.37,2013-04-30 04:41:00,
2013-04-30 06:46:00,65.6,56.7,30.08,NNE,21,4.6,4.6,73,0.00,BKN,,0.00,16.0,WeatherDisplay:10.37,2013-04-30 04:46:00,
2013-04-30 06:51:00,65.9,56.6,30.08,NNW,344,6.9,6.9,72,0.00,BKN,,0.00,19.0,WeatherDisplay:10.37,2013-04-30 04:51:00,
2013-04-30 06:56:00,66.1,56.8,30.09,WNW,301,5.0,5.0,72,0.00,BKN,,0.00,21.0,WeatherDisplay:10.37,2013-04-30 04:56:00,
2013-04-30 07:01:00,66.2,56.9,30.08,NW,324,2.3,2.3,72,0.00,BKN,,0.00,19.0,WeatherDisplay:10.37,2013-04-30 05:01:00,
2013-04-30 07:06:00,66.3,57.0,30.08,NW,324,1.2,1.2,72,0.00,BKN,,0.00,19.0,WeatherDisplay:10.37,2013-04-30 05:06:00,
2013-04-30 07:11:00,66.4,57.1,30.08,SE,126,2.3,2.3,72,0.00,BKN,,0.00,25.0,WeatherDisplay:10.37,2013-04-30 05:11:00,
2013-04-30 07:16:00,66.5,57.2,30.08,SSE,165,1.0,1.0,72,0.00,BKN,,0.00,42.0,WeatherDisplay:10.37,2013-04-30 05:16:00,
2013-04-30 07:21:00,66.8,57.1,30.09,SSW,204,2.3,0.0,71,0.00,BKN,,0.00,56.0,WeatherDisplay:10.37,2013-04-30 05:21:00,
2013-04-30 07:26:00,67.1,57.4,30.08,SW,226,3.5,3.5,71,0.00,BKN,,0.00,63.0,WeatherDisplay:10.37,2013-04-30 05:26:00,
2013-04-30 07:31:00,67.3,57.2,30.09,WSW,244,2.3,2.3,70,0.00,BKN,,0.00,63.0,WeatherDisplay:10.37,2013-04-30 05:31:00,
2013-04-30 07:36:00,67.4,57.3,30.09,WSW,244,1.2,1.2,70,0.00,BKN,,0.00,70.0,WeatherDisplay:10.37,2013-04-30 05:36:00,
2013-04-30 07:41:00,67.4,56.9,30.08,SE,127,1.2,1.2,69,0.00,BKN,,0.00,86.0,WeatherDisplay:10.37,2013-04-30 05:41:00,
2013-04-30 07:46:00,67.7,57.6,30.08,SW,234,2.3,2.3,70,0.00,BKN,,0.00,113.0,WeatherDisplay:10.37,2013-04-30 05:46:00,
2013-04-30 07:51:00,67.8,57.7,30.08,West,278,2.3,2.3,70,0.00,BKN,,0.00,105.0,WeatherDisplay:10.37,2013-04-30 05:51:00,
2013-04-30 07:56:00,67.8,57.3,30.08,WNW,286,2.3,2.3,69,0.00,BKN,,0.00,88.0,WeatherDisplay:10.37,2013-04-30 05:56:00,
2013-04-30 08:06:00,67.9,57.4,30.08,SSW,194,2.3,2.3,69,0.00,OVC,,0.00,77.0,WeatherDisplay:10.37,2013-04-30 06:06:00,
2013-04-30 08:11:00,68.1,57.1,30.08,East,90,3.5,3.5,68,0.00,BKN,,0.00,77.0,WeatherDisplay:10.37,2013-04-30 06:11:00,
2013-04-30 08:16:00,68.1,57.1,30.08,ENE,78,4.6,4.6,68,0.00,BKN,,0.00,77.0,WeatherDisplay:10.37,2013-04-30 06:16:00,
2013-04-30 08:21:00,68.2,57.2,30.08,NNW,332,3.5,3.5,68,0.00,BKN,,0.00,90.0,WeatherDisplay:10.37,2013-04-30 06:21:00,
2013-04-30 08:26:00,68.3,56.5,30.08,SSE,161,3.5,3.5,66,0.00,BKN,,0.00,107.0,WeatherDisplay:10.37,2013-04-30 06:26:00,
2013-04-30 08:31:00,68.6,56.4,30.08,NNE,26,3.0,3.0,65,0.00,BKN,,0.00,132.0,WeatherDisplay:10.37,2013-04-30 06:31:00,
2013-04-30 08:36:00,69.0,56.3,30.09,SSW,195,3.5,3.5,64,0.00,BKN,,0.00,163.0,WeatherDisplay:10.37,2013-04-30 06:36:00,
2013-04-30 08:41:00,69.4,55.8,30.09,WNW,288,2.3,2.3,62,0.00,BKN,,0.00,181.0,WeatherDisplay:10.37,2013-04-30 06:41:00,
2013-04-30 08:46:00,69.7,55.6,30.09,NE,46,2.3,2.3,61,0.00,BKN,,0.00,211.0,WeatherDisplay:10.37,2013-04-30 06:46:00,
2013-04-30 08:51:00,70.2,55.7,30.09,NE,43,2.0,2.0,60,0.00,BKN,,0.00,225.0,WeatherDisplay:10.37,2013-04-30 06:51:00,
2013-04-30 08:56:00,70.7,55.7,30.09,NNE,29,1.2,0.0,59,0.00,BKN,,0.00,322.0,WeatherDisplay:10.37,2013-04-30 06:56:00,
2013-04-30 09:01:00,71.3,55.3,30.09,ESE,119,3.5,3.5,57,0.00,BKN,,0.00,243.0,WeatherDisplay:10.37,2013-04-30 07:01:00,
2013-04-30 09:06:00,71.8,55.3,30.09,ESE,111,4.6,4.6,56,0.00,BKN,,0.00,272.0,WeatherDisplay:10.37,2013-04-30 07:06:00,
2013-04-30 09:11:00,72.2,55.6,30.09,North,355,1.2,1.2,56,0.00,BKN,,0.00,512.0,WeatherDisplay:10.37,2013-04-30 07:11:00,
2013-04-30 09:16:00,72.9,55.3,30.09,SW,214,1.2,1.2,54,0.00,BKN,,0.00,390.0,WeatherDisplay:10.37,2013-04-30 07:16:00,
2013-04-30 09:21:00,73.4,55.2,30.09,East,99,2.3,2.3,53,0.00,BKN,,0.00,473.0,WeatherDisplay:10.37,2013-04-30 07:21:00,
2013-04-30 09:26:00,74.1,55.3,30.09,ESE,105,1.2,1.2,52,0.00,BKN,,0.00,550.0,WeatherDisplay:10.37,2013-04-30 07:26:00,
2013-04-30 09:31:00,74.7,55.4,30.09,East,83,2.0,2.0,51,0.00,BKN,,0.00,446.0,WeatherDisplay:10.37,2013-04-30 07:31:00,
2013-04-30 09:36:00,75.1,55.2,30.08,ESE,110,5.0,5.0,50,0.00,BKN,,0.00,332.0,WeatherDisplay:10.37,2013-04-30 07:36:00,
2013-04-30 09:41:00,75.2,55.3,30.08,NE,38,4.0,4.0,50,0.00,BKN,,0.00,457.0,WeatherDisplay:10.37,2013-04-30 07:41:00,
2013-04-30 09:46:00,75.7,54.6,30.08,NW,313,4.6,4.6,48,0.00,BKN,,0.00,533.0,WeatherDisplay:10.37,2013-04-30 07:46:00,
2013-04-30 09:51:00,76.5,53.0,30.08,ESE,121,5.8,5.8,44,0.00,BKN,,0.00,563.0,WeatherDisplay:10.37,2013-04-30 07:51:00,
2013-04-30 09:56:00,77.3,51.1,30.08,ENE,71,8.1,8.1,40,0.00,BKN,,0.00,378.0,WeatherDisplay:10.37,2013-04-30 07:56:00,
2013-04-30 10:01:00,77.6,50.7,30.07,WSW,248,6.9,6.9,39,0.00,SCT,,0.00,287.0,WeatherDisplay:10.37,2013-04-30 08:01:00,
2013-04-30 10:06:00,77.4,51.9,30.07,East,100,11.5,11.5,41,0.00,BKN,,0.00,283.0,WeatherDisplay:10.37,2013-04-30 08:06:00,
2013-04-30 10:11:00,77.1,50.9,30.08,SSE,158,5.0,5.0,40,0.00,BKN,,0.00,299.0,WeatherDisplay:10.37,2013-04-30 08:11:00,
2013-04-30 10:16:00,77.3,51.8,30.07,East,82,9.2,9.2,41,0.00,BKN,,0.00,457.0,WeatherDisplay:10.37,2013-04-30 08:16:00,
2013-04-30 10:21:00,77.6,50.7,30.07,NE,38,9.2,9.2,39,0.00,BKN,,0.00,573.0,WeatherDisplay:10.37,2013-04-30 08:21:00,
2013-04-30 10:26:00,78.0,51.0,30.06,WSW,258,6.9,6.9,39,0.00,BKN,,0.00,339.0,WeatherDisplay:10.37,2013-04-30 08:26:00,
2013-04-30 10:31:00,78.2,49.8,30.06,SE,138,5.8,5.8,37,0.00,BKN,,0.00,283.0,WeatherDisplay:10.37,2013-04-30 08:31:00,
2013-04-30 10:36:00,78.1,49.7,30.06,SW,215,8.1,8.1,37,0.00,BKN,,0.00,220.0,WeatherDisplay:10.37,2013-04-30 08:36:00,
2013-04-30 10:41:00,78.1,49.7,30.06,South,184,15.0,15.0,37,0.00,BKN,,0.00,179.0,WeatherDisplay:10.37,2013-04-30 08:41:00,
2013-04-30 10:46:00,77.9,50.2,30.07,SW,223,4.6,4.6,38,0.00,BKN,,0.00,163.0,WeatherDisplay:10.37,2013-04-30 08:46:00,
2013-04-30 10:51:00,77.8,50.2,30.07,NE,44,3.5,3.5,38,0.00,BKN,,0.00,172.0,WeatherDisplay:10.37,2013-04-30 08:51:00,
2013-04-30 10:56:00,77.7,50.1,30.07,East,86,5.8,5.8,38,0.00,BKN,,0.00,206.0,WeatherDisplay:10.37,2013-04-30 08:56:00,
2013-04-30 11:01:00,77.8,50.2,30.07,WSW,249,9.2,9.2,38,0.00,BKN,,0.00,281.0,WeatherDisplay:10.37,2013-04-30 09:01:00,
2013-04-30 11:06:00,77.9,50.2,30.07,SSW,192,6.9,6.9,38,0.00,BKN,,0.00,302.0,WeatherDisplay:10.37,2013-04-30 09:06:00,
2013-04-30 11:11:00,78.1,51.1,30.07,South,180,5.8,5.8,39,0.00,BKN,,0.00,330.0,WeatherDisplay:10.37,2013-04-30 09:11:00,
2013-04-30 11:16:00,78.3,51.3,30.07,NE,46,7.0,7.0,39,0.00,BKN,,0.00,355.0,WeatherDisplay:10.37,2013-04-30 09:16:00,
2013-04-30 11:21:00,78.6,50.1,30.05,South,184,9.2,9.2,37,0.00,BKN,,0.00,411.0,WeatherDisplay:10.37,2013-04-30 09:21:00,
2013-04-30 11:26:00,78.9,49.7,30.05,SW,218,12.7,12.7,36,0.00,BKN,,0.00,388.0,WeatherDisplay:10.37,2013-04-30 09:26:00,
2013-04-30 11:32:00,79.1,49.1,30.05,NW,320,8.1,8.1,35,0.00,BKN,,0.00,406.0,WeatherDisplay:10.37,2013-04-30 09:32:00,
2013-04-30 11:37:00,79.5,50.2,30.05,East,89,9.0,9.0,36,0.00,BKN,,0.00,517.0,WeatherDisplay:10.37,2013-04-30 09:37:00,
2013-04-30 11:42:00,79.8,49.7,30.05,NE,46,8.1,8.1,35,0.00,BKN,,0.00,469.0,WeatherDisplay:10.37,2013-04-30 09:42:00,
2013-04-30 11:47:00,80.1,49.2,30.05,NNE,17,9.2,9.2,34,0.00,BKN,,0.00,492.0,WeatherDisplay:10.37,2013-04-30 09:47:00,
2013-04-30 11:52:00,80.3,48.6,30.04,SW,214,6.9,6.9,33,0.00,BKN,,0.00,494.0,WeatherDisplay:10.37,2013-04-30 09:52:00,
2013-04-30 11:57:00,80.7,48.9,30.04,West,276,4.6,4.6,33,0.00,BKN,,0.00,647.0,WeatherDisplay:10.37,2013-04-30 09:57:00,
2013-04-30 12:02:00,81.3,47.8,30.04,South,184,6.9,6.9,31,0.00,SCT,,0.00,712.0,WeatherDisplay:10.37,2013-04-30 10:02:00,
2013-04-30 12:07:00,81.7,46.3,30.04,South,176,6.9,6.9,29,0.00,SCT,,0.00,717.0,WeatherDisplay:10.37,2013-04-30 10:07:00,
2013-04-30 12:12:00,81.9,46.5,30.04,SW,235,10.4,10.4,29,0.00,SCT,,0.00,541.0,WeatherDisplay:10.37,2013-04-30 10:12:00,
2013-04-30 12:17:00,81.8,45.5,30.03,NW,317,11.5,11.5,28,0.00,SCT,,0.00,350.0,WeatherDisplay:10.37,2013-04-30 10:17:00,
2013-04-30 12:22:00,81.5,45.2,30.03,East,90,6.9,6.9,28,0.00,BKN,,0.00,308.0,WeatherDisplay:10.37,2013-04-30 10:22:00,
2013-04-30 12:27:00,81.3,46.0,30.03,SSE,163,6.9,6.9,29,0.00,BKN,,0.00,292.0,WeatherDisplay:10.37,2013-04-30 10:27:00,
2013-04-30 12:32:00,81.3,46.0,30.03,SE,132,12.7,12.7,29,0.00,BKN,,0.00,290.0,WeatherDisplay:10.37,2013-04-30 10:32:00,
2013-04-30 12:37:00,81.4,47.0,30.03,WNW,296,5.8,5.8,30,0.00,BKN,,0.00,316.0,WeatherDisplay:10.37,2013-04-30 10:37:00,
2013-04-30 12:42:00,81.6,47.2,30.03,West,259,3.5,3.5,30,0.00,BKN,,0.00,624.0,WeatherDisplay:10.37,2013-04-30 10:42:00,
2013-04-30 12:47:00,82.1,46.7,30.03,SE,126,9.2,9.2,29,0.00,SCT,,0.00,858.0,WeatherDisplay:10.37,2013-04-30 10:47:00,
2013-04-30 12:52:00,82.3,46.9,30.03,ESE,115,5.8,5.8,29,0.00,FEW,,0.00,970.0,WeatherDisplay:10.37,2013-04-30 10:52:00,
2013-04-30 12:57:00,82.3,45.9,30.03,ESE,121,8.0,8.0,28,0.00,FEW,,0.00,376.0,WeatherDisplay:10.37,2013-04-30 10:57:00,
2013-04-30 13:02:00,82.6,47.1,30.03,ENE,63,6.9,6.9,29,0.00,SCT,,0.00,874.0,WeatherDisplay:10.37,2013-04-30 11:02:00,
2013-04-30 13:07:00,83.3,47.7,30.03,SSE,158,5.8,5.8,29,0.00,FEW,,0.00,877.0,WeatherDisplay:10.37,2013-04-30 11:07:00,
2013-04-30 13:12:00,84.2,48.5,30.03,ESE,119,5.0,5.0,29,0.00,CLR,,0.00,856.0,WeatherDisplay:10.37,2013-04-30 11:12:00,
2013-04-30 13:17:00,84.0,49.2,30.03,South,190,1.2,1.2,30,0.00,CLR,,0.00,840.0,WeatherDisplay:10.37,2013-04-30 11:17:00,
2013-04-30 13:22:00,84.5,48.8,30.03,NNE,22,3.5,3.5,29,0.00,CLR,,0.00,831.0,WeatherDisplay:10.37,2013-04-30 11:22:00,
2013-04-30 13:27:00,84.8,49.0,30.03,ESE,103,6.9,6.9,29,0.00,CLR,,0.00,830.0,WeatherDisplay:10.37,2013-04-30 11:27:00,
2013-04-30 13:32:00,84.9,50.9,30.03,South,182,6.9,6.9,31,0.00,CLR,,0.00,826.0,WeatherDisplay:10.37,2013-04-30 11:32:00,
2013-04-30 13:37:00,82.9,49.2,30.03,West,262,6.9,6.9,31,0.00,CLR,,0.00,823.0,WeatherDisplay:10.37,2013-04-30 11:37:00,
2013-04-30 13:42:00,82.9,49.2,30.03,South,190,0.0,0.0,31,0.00,CLR,,0.00,814.0,WeatherDisplay:10.37,2013-04-30 11:42:00,
2013-04-30 13:47:00,83.7,49.0,30.03,ESE,109,2.3,2.3,30,0.00,CLR,,0.00,812.0,WeatherDisplay:10.37,2013-04-30 11:47:00,
2013-04-30 13:52:00,84.5,48.8,30.03,ESE,104,3.5,3.5,29,0.00,CLR,,0.00,807.0,WeatherDisplay:10.37,2013-04-30 11:52:00,
2013-04-30 13:57:00,84.8,49.0,30.03,SSE,148,2.3,2.3,29,0.00,CLR,,0.00,796.0,WeatherDisplay:10.37,2013-04-30 11:57:00,
2013-04-30 14:02:00,84.4,48.7,30.03,West,279,6.9,6.9,29,0.00,CLR,,0.00,798.0,WeatherDisplay:10.37,2013-04-30 12:02:00,
2013-04-30 14:07:00,84.1,49.3,30.03,SW,227,3.5,3.5,30,0.00,CLR,,0.00,791.0,WeatherDisplay:10.37,2013-04-30 12:07:00,
2013-04-30 14:12:00,84.3,48.6,30.03,WSW,240,3.5,3.5,29,0.00,CLR,,0.00,789.0,WeatherDisplay:10.37,2013-04-30 12:12:00,
2013-04-30 14:17:00,83.9,48.2,30.03,SW,225,6.0,6.0,29,0.00,CLR,,0.00,784.0,WeatherDisplay:10.37,2013-04-30 12:17:00,
2013-04-30 14:22:00,83.6,49.8,30.03,ENE,73,6.9,6.9,31,0.00,CLR,,0.00,775.0,WeatherDisplay:10.37,2013-04-30 12:22:00,
2013-04-30 14:27:00,84.1,50.2,30.03,WSW,252,6.0,6.0,31,0.00,CLR,,0.00,768.0,WeatherDisplay:10.37,2013-04-30 12:27:00,
2013-04-30 14:32:00,83.6,48.0,30.04,SW,236,10.4,10.4,29,0.00,CLR,,0.00,763.0,WeatherDisplay:10.37,2013-04-30 12:32:00,
2013-04-30 14:37:00,83.2,48.5,30.03,West,276,7.0,7.0,30,0.00,CLR,,0.00,756.0,WeatherDisplay:10.37,2013-04-30 12:37:00,
2013-04-30 14:42:00,82.7,49.0,30.03,West,262,6.9,6.9,31,0.00,CLR,,0.00,742.0,WeatherDisplay:10.37,2013-04-30 12:42:00,
2013-04-30 14:47:00,83.1,49.3,30.03,WSW,257,9.2,9.2,31,0.00,CLR,,0.00,737.0,WeatherDisplay:10.37,2013-04-30 12:47:00,
2013-04-30 14:52:00,83.3,51.2,30.03,SSE,147,9.2,9.2,33,0.00,CLR,,0.00,724.0,WeatherDisplay:10.37,2013-04-30 12:52:00,
2013-04-30 14:57:00,83.1,50.2,30.03,WSW,257,9.2,9.2,32,0.00,CLR,,0.00,715.0,WeatherDisplay:10.37,2013-04-30 12:57:00,
2013-04-30 15:02:00,83.0,50.1,30.03,WSW,255,12.0,12.0,32,0.00,CLR,,0.00,705.0,WeatherDisplay:10.37,2013-04-30 13:02:00,
2013-04-30 15:07:00,82.9,49.2,30.03,NE,55,11.5,11.5,31,0.00,CLR,,0.00,698.0,WeatherDisplay:10.37,2013-04-30 13:07:00,
2013-04-30 15:12:00,82.6,49.7,30.02,WNW,284,9.2,9.2,32,0.00,CLR,,0.00,691.0,WeatherDisplay:10.37,2013-04-30 13:12:00,
2013-04-30 15:17:00,83.3,49.5,30.03,NNW,330,10.4,10.4,31,0.00,CLR,,0.00,680.0,WeatherDisplay:10.37,2013-04-30 13:17:00,
2013-04-30 15:22:00,83.6,49.8,30.03,West,265,11.5,11.5,31,0.00,CLR,,0.00,668.0,WeatherDisplay:10.37,2013-04-30 13:22:00,
2013-04-30 15:27:00,83.7,49.0,30.03,West,268,11.5,11.5,30,0.00,CLR,,0.00,659.0,WeatherDisplay:10.37,2013-04-30 13:27:00,
2013-04-30 15:32:00,82.2,51.8,30.03,West,276,15.0,15.0,35,0.00,CLR,,0.00,647.0,WeatherDisplay:10.37,2013-04-30 13:32:00,
2013-04-30 15:37:00,80.6,52.6,30.03,West,270,14.0,14.0,38,0.00,CLR,,0.00,633.0,WeatherDisplay:10.37,2013-04-30 13:37:00,
2013-04-30 15:42:00,78.6,52.9,30.02,West,273,13.8,13.8,41,0.00,CLR,,0.00,619.0,WeatherDisplay:10.37,2013-04-30 13:42:00,
2013-04-30 15:47:00,77.8,52.9,30.02,NW,323,12.7,12.7,42,0.00,CLR,,0.00,610.0,WeatherDisplay:10.37,2013-04-30 13:47:00,
2013-04-30 15:52:00,78.4,55.3,30.02,WSW,246,9.2,9.2,45,0.00,CLR,,0.00,596.0,WeatherDisplay:10.37,2013-04-30 13:52:00,
2013-04-30 15:58:00,79.1,54.0,30.02,WNW,282,10.4,10.4,42,0.00,CLR,,0.00,587.0,WeatherDisplay:10.37,2013-04-30 13:58:00,
2013-04-30 16:03:00,79.4,53.6,30.02,West,279,14.0,14.0,41,0.00,CLR,,0.00,571.0,WeatherDisplay:10.37,2013-04-30 14:03:00,
2013-04-30 16:08:00,79.4,52.3,30.02,WNW,290,11.5,11.5,39,0.00,CLR,,0.00,561.0,WeatherDisplay:10.37,2013-04-30 14:08:00,
2013-04-30 16:13:00,78.8,53.8,30.01,WNW,297,12.7,12.7,42,0.00,CLR,,0.00,550.0,WeatherDisplay:10.37,2013-04-30 14:13:00,
2013-04-30 16:18:00,78.3,54.0,30.02,NW,313,12.7,12.7,43,0.00,CLR,,0.00,538.0,WeatherDisplay:10.37,2013-04-30 14:18:00,
2013-04-30 16:23:00,78.5,55.4,30.01,NW,312,14.0,14.0,45,0.00,CLR,,0.00,522.0,WeatherDisplay:10.37,2013-04-30 14:23:00,
2013-04-30 16:28:00,77.6,55.2,30.02,WSW,257,19.6,19.6,46,0.00,CLR,,0.00,508.0,WeatherDisplay:10.37,2013-04-30 14:28:00,
2013-04-30 16:33:00,75.8,54.7,30.02,WNW,289,15.0,15.0,48,0.00,CLR,,0.00,497.0,WeatherDisplay:10.37,2013-04-30 14:33:00,
2013-04-30 16:38:00,75.4,55.5,30.02,WNW,285,13.8,13.8,50,0.00,CLR,,0.00,482.0,WeatherDisplay:10.37,2013-04-30 14:38:00,
2013-04-30 16:43:00,75.2,55.3,30.02,WNW,291,16.1,16.1,50,0.00,CLR,,0.00,468.0,WeatherDisplay:10.37,2013-04-30 14:43:00,
2013-04-30 16:48:00,74.9,54.4,30.02,West,277,15.0,15.0,49,0.00,CLR,,0.00,455.0,WeatherDisplay:10.37,2013-04-30 14:48:00,
2013-04-30 16:53:00,75.0,54.5,30.02,NW,306,13.8,13.8,49,0.00,CLR,,0.00,411.0,WeatherDisplay:10.37,2013-04-30 14:53:00,
2013-04-30 16:58:00,75.8,55.3,30.01,WNW,295,11.5,11.5,49,0.00,CLR,,0.00,424.0,WeatherDisplay:10.37,2013-04-30 14:58:00,
2013-04-30 17:03:00,76.0,53.7,30.01,WSW,256,12.7,12.7,46,0.00,CLR,,0.00,408.0,WeatherDisplay:10.37,2013-04-30 15:03:00,
2013-04-30 17:08:00,76.7,54.4,30.01,West,273,9.2,9.2,46,0.00,CLR,,0.00,392.0,WeatherDisplay:10.37,2013-04-30 15:08:00,
2013-04-30 17:13:00,77.0,53.4,30.01,WNW,292,11.5,11.5,44,0.00,CLR,,0.00,380.0,WeatherDisplay:10.37,2013-04-30 15:13:00,
2013-04-30 17:18:00,77.0,54.0,30.01,WNW,286,10.4,10.4,45,0.00,CLR,,0.00,366.0,WeatherDisplay:10.37,2013-04-30 15:18:00,
2013-04-30 17:23:00,77.4,54.4,30.01,West,268,10.4,10.4,45,0.00,CLR,,0.00,353.0,WeatherDisplay:10.37,2013-04-30 15:23:00,
2013-04-30 17:28:00,77.8,54.1,30.01,WNW,286,5.8,5.8,44,0.00,CLR,,0.00,336.0,WeatherDisplay:10.37,2013-04-30 15:28:00,
2013-04-30 17:33:00,78.0,53.7,30.01,WNW,288,9.2,9.2,43,0.00,CLR,,0.00,320.0,WeatherDisplay:10.37,2013-04-30 15:33:00,
2013-04-30 17:38:00,78.0,53.0,30.01,WNW,296,10.4,10.4,42,0.00,CLR,,0.00,308.0,WeatherDisplay:10.37,2013-04-30 15:38:00,
2013-04-30 17:43:00,77.8,53.5,30.01,WNW,296,9.2,9.2,43,0.00,CLR,,0.00,292.0,WeatherDisplay:10.37,2013-04-30 15:43:00,
2013-04-30 17:48:00,77.7,52.8,30.01,WNW,303,11.5,11.5,42,0.00,CLR,,0.00,276.0,WeatherDisplay:10.37,2013-04-30 15:48:00,
2013-04-30 17:53:00,77.6,52.7,30.01,West,279,9.2,9.2,42,0.00,CLR,,0.00,260.0,WeatherDisplay:10.37,2013-04-30 15:53:00,
2013-04-30 17:58:00,77.9,53.6,30.01,West,259,6.9,6.9,43,0.00,CLR,,0.00,250.0,WeatherDisplay:10.37,2013-04-30 15:58:00,
2013-04-30 18:03:00,78.2,54.5,30.01,SW,234,10.4,10.4,44,0.00,CLR,,0.00,236.0,WeatherDisplay:10.37,2013-04-30 16:03:00,
2013-04-30 18:08:00,77.5,53.9,30.01,West,272,9.2,9.2,44,0.00,CLR,,0.00,220.0,WeatherDisplay:10.37,2013-04-30 16:08:00,
2013-04-30 18:13:00,77.4,53.8,30.00,West,265,8.1,8.1,44,0.00,CLR,,0.00,206.0,WeatherDisplay:10.37,2013-04-30 16:13:00,
2013-04-30 18:18:00,77.7,54.0,30.01,West,260,8.1,8.1,44,0.00,CLR,,0.00,192.0,WeatherDisplay:10.37,2013-04-30 16:18:00,
2013-04-30 18:23:00,77.8,54.1,30.01,West,275,6.0,6.0,44,0.00,CLR,,0.00,178.0,WeatherDisplay:10.37,2013-04-30 16:23:00,
2013-04-30 18:28:00,78.2,53.2,30.01,NW,310,8.1,8.1,42,0.00,CLR,,0.00,165.0,WeatherDisplay:10.37,2013-04-30 16:28:00,
2013-04-30 18:33:00,78.1,53.8,30.01,WSW,238,5.8,5.8,43,0.00,CLR,,0.00,151.0,WeatherDisplay:10.37,2013-04-30 16:33:00,
2013-04-30 18:38:00,78.2,53.2,30.01,West,269,5.8,5.8,42,0.00,CLR,,0.00,139.0,WeatherDisplay:10.37,2013-04-30 16:38:00,
2013-04-30 18:43:00,78.3,54.0,30.01,WSW,250,5.0,5.0,43,0.00,CLR,,0.00,125.0,WeatherDisplay:10.37,2013-04-30 16:43:00,
2013-04-30 18:48:00,78.2,53.2,30.01,SW,236,5.8,5.8,42,0.00,CLR,,0.00,113.0,WeatherDisplay:10.37,2013-04-30 16:48:00,
2013-04-30 18:53:00,78.1,53.1,30.01,SE,128,4.6,4.6,42,0.00,CLR,,0.00,100.0,WeatherDisplay:10.37,2013-04-30 16:53:00,
2013-04-30 18:58:00,77.9,53.0,30.01,WNW,290,4.0,4.0,42,0.00,CLR,,0.00,86.0,WeatherDisplay:10.37,2013-04-30 16:58:00,
2013-04-30 19:03:00,77.6,52.0,30.02,NW,307,6.9,6.9,41,0.00,,,0.00,74.0,WeatherDisplay:10.37,2013-04-30 17:03:00,
2013-04-30 19:08:00,77.2,55.4,30.02,NE,42,5.8,5.8,47,0.00,,,0.00,62.0,WeatherDisplay:10.37,2013-04-30 17:08:00,
2013-04-30 19:13:00,76.6,54.9,30.02,West,261,3.5,3.5,47,0.00,,,0.00,53.0,WeatherDisplay:10.37,2013-04-30 17:13:00,
2013-04-30 19:18:00,76.2,55.1,30.02,South,178,2.0,2.0,48,0.00,,,0.00,44.0,WeatherDisplay:10.37,2013-04-30 17:18:00,
2013-04-30 19:23:00,75.7,54.6,30.02,ESE,105,5.8,5.8,48,0.00,,,0.00,37.0,WeatherDisplay:10.37,2013-04-30 17:23:00,
2013-04-30 19:28:00,75.4,54.3,30.02,ESE,120,1.2,1.2,48,0.00,,,0.00,28.0,WeatherDisplay:10.37,2013-04-30 17:28:00,
2013-04-30 19:33:00,75.2,54.2,30.02,SSE,160,2.3,2.3,48,0.00,,,0.00,23.0,WeatherDisplay:10.37,2013-04-30 17:33:00,
2013-04-30 19:38:00,75.1,54.6,30.02,SSW,199,2.3,2.3,49,0.00,,,0.00,18.0,WeatherDisplay:10.37,2013-04-30 17:38:00,
2013-04-30 19:43:00,75.0,54.0,30.02,SE,137,2.0,2.0,48,0.00,,,0.00,12.0,WeatherDisplay:10.37,2013-04-30 17:43:00,
2013-04-30 19:48:00,74.9,54.4,30.02,East,93,3.5,3.5,49,0.00,,,0.00,7.0,WeatherDisplay:10.37,2013-04-30 17:48:00,
2013-04-30 19:53:00,74.8,54.4,30.03,NE,39,1.2,1.2,49,0.00,,,0.00,0.0,WeatherDisplay:10.37,2013-04-30 17:53:00,
2013-04-30 19:58:00,74.7,54.3,30.03,ESE,103,3.5,3.5,49,0.00,,,0.00,0.0,WeatherDisplay:10.37,2013-04-30 17:58:00,
2013-04-30 20:03:00,74.7,54.3,30.02,ESE,107,3.5,3.5,49,0.00,,,0.00,0.0,WeatherDisplay:10.37,2013-04-30 18:03:00,
2013-04-30 20:08:00,74.7,53.7,30.03,ESE,105,2.3,2.3,48,0.00,,,0.00,0.0,WeatherDisplay:10.37,2013-04-30 18:08:00,
2013-04-30 20:13:00,74.7,54.3,30.03,East,96,2.3,2.3,49,0.00,,,0.00,0.0,WeatherDisplay:10.37,2013-04-30 18:13:00,
2013-04-30 20:18:00,74.6,54.7,30.03,SSW,195,3.5,3.5,50,0.00,,,0.00,0.0,WeatherDisplay:10.37,2013-04-30 18:18:00,
2013-04-30 20:23:00,74.6,54.2,30.03,ESE,105,4.6,4.6,49,0.00,,,0.00,0.0,WeatherDisplay:10.37,2013-04-30 18:23:00,
2013-04-30 20:28:00,74.6,54.2,30.03,East,80,4.6,4.6,49,0.00,,,0.00,0.0,WeatherDisplay:10.37,2013-04-30 18:28:00,
2013-04-30 20:33:00,74.7,54.3,30.03,East,88,5.8,5.8,49,0.00,,,0.00,0.0,WeatherDisplay:10.37,2013-04-30 18:33:00,
2013-04-30 20:38:00,74.8,53.8,30.03,SW,215,4.6,4.6,48,0.00,,,0.00,0.0,WeatherDisplay:10.37,2013-04-30 18:38:00,
2013-04-30 20:44:00,74.9,52.7,30.03,NW,307,3.5,3.5,46,0.00,,,0.00,0.0,WeatherDisplay:10.37,2013-04-30 18:44:00,
2013-04-30 20:48:00,74.9,52.1,30.03,SSW,202,3.5,3.5,45,0.00,,,0.00,0.0,WeatherDisplay:10.37,2013-04-30 18:48:00,
2013-04-30 20:54:00,75.0,51.0,30.03,SSE,152,4.6,4.6,43,0.00,,,0.00,0.0,WeatherDisplay:10.37,2013-04-30 18:54:00,
2013-04-30 20:59:00,75.1,50.4,30.03,SW,227,3.5,3.5,42,0.00,,,0.00,0.0,WeatherDisplay:10.37,2013-04-30 18:59:00,
2013-04-30 21:04:00,75.1,51.1,30.03,South,184,3.5,3.5,43,0.00,,,0.00,0.0,WeatherDisplay:10.37,2013-04-30 19:04:00,
2013-04-30 21:09:00,75.0,51.0,30.03,SW,230,3.5,3.5,43,0.00,,,0.00,0.0,WeatherDisplay:10.37,2013-04-30 19:09:00,
2013-04-30 21:14:00,74.9,50.3,30.03,West,266,3.5,3.5,42,0.00,,,0.00,0.0,WeatherDisplay:10.37,2013-04-30 19:14:00,
2013-04-30 21:19:00,75.0,49.7,30.03,NE,49,8.0,8.0,41,0.00,,,0.00,0.0,WeatherDisplay:10.37,2013-04-30 19:19:00,
2013-04-30 21:24:00,75.1,49.8,30.03,East,85,8.0,8.0,41,0.00,,,0.00,0.0,WeatherDisplay:10.37,2013-04-30 19:24:00,
2013-04-30 21:29:00,75.3,49.3,30.02,SW,216,5.8,5.8,40,0.00,,,0.00,0.0,WeatherDisplay:10.37,2013-04-30 19:29:00,
2013-04-30 21:34:00,75.6,48.9,30.02,SW,218,5.8,5.8,39,0.00,,,0.00,0.0,WeatherDisplay:10.37,2013-04-30 19:34:00,
2013-04-30 21:39:00,75.8,48.4,30.03,SW,232,3.5,3.5,38,0.00,,,0.00,0.0,WeatherDisplay:10.37,2013-04-30 19:39:00,
2013-04-30 21:44:00,75.9,48.5,30.03,SW,227,3.5,3.5,38,0.00,,,0.00,0.0,WeatherDisplay:10.37,2013-04-30 19:44:00,
2013-04-30 21:49:00,75.9,47.8,30.03,SSW,202,4.6,4.6,37,0.00,,,0.00,0.0,WeatherDisplay:10.37,2013-04-30 19:49:00,
2013-04-30 21:54:00,75.9,47.0,30.03,SSW,207,4.6,4.6,36,0.00,,,0.00,0.0,WeatherDisplay:10.37,2013-04-30 19:54:00,
2013-04-30 21:59:00,76.0,47.1,30.02,SW,227,4.6,4.6,36,0.00,,,0.00,0.0,WeatherDisplay:10.37,2013-04-30 19:59:00,
2013-04-30 22:04:00,76.0,46.4,30.02,SW,221,4.6,4.6,35,0.00,,,0.00,0.0,WeatherDisplay:10.37,2013-04-30 20:04:00,
2013-04-30 22:09:00,76.0,46.4,30.02,East,88,3.5,3.5,35,0.00,,,0.00,0.0,WeatherDisplay:10.37,2013-04-30 20:09:00,
2013-04-30 22:14:00,76.0,46.4,30.02,WNW,288,4.0,4.0,35,0.00,,,0.00,0.0,WeatherDisplay:10.37,2013-04-30 20:14:00,
2013-04-30 22:19:00,75.9,46.3,30.02,SW,233,6.0,6.0,35,0.00,,,0.00,0.0,WeatherDisplay:10.37,2013-04-30 20:19:00,
2013-04-30 22:24:00,76.0,46.4,30.02,NE,50,5.8,5.8,35,0.00,,,0.00,0.0,WeatherDisplay:10.37,2013-04-30 20:24:00,
2013-04-30 22:29:00,76.3,46.6,30.02,WSW,249,5.0,5.0,35,0.00,,,0.00,0.0,WeatherDisplay:10.37,2013-04-30 20:29:00,
2013-04-30 22:34:00,76.3,46.6,30.02,WNW,282,3.5,3.5,35,0.00,,,0.00,0.0,WeatherDisplay:10.37,2013-04-30 20:34:00,
2013-04-30 22:39:00,76.3,46.6,30.02,SSW,192,3.5,3.5,35,0.00,,,0.00,0.0,WeatherDisplay:10.37,2013-04-30 20:39:00,
2013-04-30 22:44:00,76.2,47.3,30.02,SE,144,3.5,3.5,36,0.00,,,0.00,0.0,WeatherDisplay:10.37,2013-04-30 20:44:00,
2013-04-30 22:49:00,76.1,47.2,30.02,WSW,241,3.5,3.5,36,0.00,,,0.00,0.0,WeatherDisplay:10.37,2013-04-30 20:49:00,
2013-04-30 22:54:00,76.1,47.2,30.02,SW,227,2.3,2.3,36,0.00,,,0.00,0.0,WeatherDisplay:10.37,2013-04-30 20:54:00,
2013-04-30 22:59:00,76.2,47.3,30.02,SW,236,4.6,4.6,36,0.00,,,0.00,0.0,WeatherDisplay:10.37,2013-04-30 20:59:00,
2013-04-30 23:04:00,76.3,47.4,30.02,SW,219,3.5,3.5,36,0.00,,,0.00,0.0,WeatherDisplay:10.37,2013-04-30 21:04:00,
2013-04-30 23:09:00,76.3,47.4,30.02,South,187,3.5,3.5,36,0.00,,,0.00,0.0,WeatherDisplay:10.37,2013-04-30 21:09:00,
2013-04-30 23:14:00,76.2,48.0,30.02,West,259,3.5,3.5,37,0.00,,,0.00,0.0,WeatherDisplay:10.37,2013-04-30 21:14:00,
2013-04-30 23:19:00,76.2,48.0,30.02,NNE,25,3.5,3.5,37,0.00,,,0.00,0.0,WeatherDisplay:10.37,2013-04-30 21:19:00,
2013-04-30 23:24:00,76.3,48.1,30.03,NNW,337,3.5,3.5,37,0.00,,,0.00,0.0,WeatherDisplay:10.37,2013-04-30 21:24:00,
2013-04-30 23:29:00,76.2,48.0,30.03,ENE,57,0.0,0.0,37,0.00,,,0.00,0.0,WeatherDisplay:10.37,2013-04-30 21:29:00,
2013-04-30 23:34:00,76.2,48.0,30.02,NE,49,0.0,0.0,37,0.00,,,0.00,0.0,WeatherDisplay:10.37,2013-04-30 21:34:00,
2013-04-30 23:39:00,76.1,47.9,30.02,ENE,70,2.3,2.3,37,0.00,,,0.00,0.0,WeatherDisplay:10.37,2013-04-30 21:39:00,
2013-04-30 23:44:00,76.0,48.6,30.02,East,97,2.3,2.3,38,0.00,,,0.00,0.0,WeatherDisplay:10.37,2013-04-30 21:44:00,
2013-04-30 23:49:00,75.8,49.1,30.03,SSE,163,1.2,1.2,39,0.00,,,0.00,0.0,WeatherDisplay:10.37,2013-04-30 21:49:00,
2013-04-30 23:54:00,75.5,48.8,30.02,ESE,103,0.0,0.0,39,0.00,,,0.00,0.0,WeatherDisplay:10.37,2013-04-30 21:54:00,
2013-04-30 23:59:00,75.3,49.3,30.03,ESE,103,1.2,1.2,40,0.00,,,0.00,0.0,WeatherDisplay:10.37,2013-04-30 21:59:00,